JH0FOG-13 Weather Reports


time (UTC)temp
C
wind
direction
speed
KPH
gust
KPH
rain 1hr
cm
rain 24hr
cm
rain mn
cm
humidity
%
barometer
mb
20260502222002 12 0 0.0 0.0 0.00 0.00 0.00 84 1012.3
20260502220002 11 314 0.0 3.2 0.00 0.00 0.00 86 1012.5
20260502214002 11 186 0.0 1.6 0.00 0.00 0.00 87 1012.5
20260502212002 10 0 0.0 0.0 0.00 0.00 0.00 87 1012.5
20260502210002 10 0 0.0 0.0 0.00 0.00 0.00 87 1012.7
20260502204002 10 0 0.0 0.0 0.00 0.00 0.00 87 1012.1
20260502202001 10 0 0.0 0.0 0.00 0.00 0.00 87 1011.7
20260502200001 10 0 0.0 0.0 0.00 0.00 0.00 87 1011.6
20260502194002 10 0 0.0 0.0 0.00 0.00 0.00 86 1011.6
20260502192001 10 318 0.0 1.6 0.00 0.00 0.00 85 1011.5
20260502190002 10 105 0.0 3.2 0.00 0.00 0.00 84 1011.4
20260502184002 10 176 0.0 1.6 0.00 0.00 0.00 84 1011.1
20260502182002 10 0 0.0 0.0 0.00 0.10 0.00 84 1011.2
20260502164002 9 0 0.0 0.0 0.00 1.42 0.00 86 1012.0
20260502162002 9 0 0.0 0.0 0.00 1.50 0.00 85 1012.4
20260502152002 10 169 0.0 1.6 0.00 1.80 0.00 83 1012.5
20260502122001 11 188 0.0 3.2 0.00 2.24 1.80 82 1012.9
20260502114002 11 173 1.6 4.8 0.00 2.82 1.80 83 1012.7
20260502112002 12 161 0.0 1.6 0.00 3.30 1.80 82 1012.6
20260502110002 12 158 0.0 3.2 0.00 3.81 1.80 82 1012.6
20260502104001 13 236 0.0 1.6 0.00 3.99 1.80 81 1012.3
20260502102002 13 0 0.0 0.0 0.00 3.99 1.80 81 1012.0
20260502070002 18 320 3.2 11.3 0.00 4.22 1.80 60 1010.9
20260502064002 18 322 3.2 12.9 0.00 4.22 1.80 60 1010.8
20260502062002 18 328 3.2 12.9 0.00 4.22 1.80 62 1010.7
20260502060002 18 315 4.8 25.7 0.00 4.22 1.80 62 1010.6
20260502054002 18 327 6.4 20.9 0.00 4.22 1.80 59 1010.4
20260502052002 18 320 4.8 19.3 0.00 4.22 1.80 59 1010.3
20260502050002 18 325 6.4 22.5 0.00 4.22 1.80 58 1010.2
20260502044001 18 324 6.4 24.1 0.00 4.22 1.80 57 1010.3
20260502042002 18 326 9.7 24.1 0.00 4.22 1.80 59 1010.3
20260502040002 18 317 3.2 19.3 0.00 4.22 1.80 57 1010.5
20260502034002 18 328 8.0 24.1 0.00 4.22 1.80 58 1010.2
20260502032001 18 330 4.8 22.5 0.00 4.22 1.80 59 1010.2
20260502030002 18 329 6.4 20.9 0.00 4.22 1.80 59 1009.9
20260502024002 18 332 6.4 17.7 0.00 4.22 1.80 59 1009.9
20260502022002 18 297 4.8 17.7 0.00 4.22 1.80 58 1009.6
20260502020001 17 328 8.0 20.9 0.00 4.22 1.80 59 1009.6
20260502014002 17 319 8.0 25.7 0.00 4.24 1.80 60 1009.2
20260502012001 17 324 8.0 19.3 0.00 4.24 1.80 61 1008.9
20260502010002 17 324 6.4 16.1 0.00 4.24 1.80 64 1008.9
20260502004001 16 322 8.0 29.0 0.00 4.24 1.80 62 1009.0
20260502002001 17 332 4.8 24.1 0.00 4.27 1.80 65 1009.0
20260502000001 15 344 6.4 20.9 0.00 4.37 1.80 67 1008.3
20260501234001 15 333 4.8 14.5 0.00 4.39 1.80 70 1008.1
20260501232001 15 127 3.2 17.7 0.00 4.47 1.80 71 1007.9
20260501230001 15 331 4.8 20.9 0.00 4.52 1.80 71 1007.4
20260501224002 15 126 1.6 8.0 0.00 4.55 1.80 71 1006.8